Vertical_Velocity
-2 11 0 12 -0 -2 -1 4 1 -1 -3 -1 -2 -1 -3 0 3 -5 -8 -3 2 2 -1 1 1 1 -0 1 1 -0 -0 -2 1 -0 -2 -3 -4 -1 -2 -2 -1 7 -3
3 23 -4 9 4 -4 -4 -5 3 -0 -4 -6 1 -2 -2 2 2 2 2 -0 -1 -1 -0 4 -2 1 -1 -1 0 -0 -1 1 0 -1 2 -4 3 -1 2 2 1 1 -0
-2 22 0 3 8 -5 -1 1 -14 14 -1 0 -4 3 4 1 -5 1 4 8 5 1 -1 4 -1 2 1 -1 1 -0 -0 1 -2 0 -0 -1 -3 -0 -1 0 1 3 1
-4 19 -1 3 3 4 4 3 -5 -14 -19 14 6 -0 8 -0 7 3 -8 4 0 4 6 9 13 2 1 1 2 2 -0 1 1 -3 2 1 0 -0 -0 0 -0 1 2
-4 -5 4 -5 1 -4 -5 4 12 -6 -2 1 -4 14 11 -6 1 3 -5 14 3 -8 -0 -27 -1 5 2 2 1 -1 0 2 1 3 -1 0 2 -1 1 -7 1 -4 1
-3 16 -12 -3 6 -4 -4 -1 6 0 -1 13 -8 -16 -19 14 -7 -15 -17 -33 -12 1 6 3 3 4 11 1 2 4 -0 1 1 1 3 -4 -1 -1 -1 2 -2 -1 -2
1 -2 12 -7 -1 -5 -2 4 5 -2 -1 4 10 -1 6 10 -39 -4 -40 3 -3 -7 -2 -13 -4 2 1 0 2 1 1 1 3 2 -0 2 2 3 -4 0 1 -1 2
-2 -1 3 11 0 3 6 -4 2 2 6 5 -4 -4 3 -3 12 -1 10 12 3 -3 -4 -0 1 2 -0 -1 3 3 5 5 3 4 2 6 1 0 0 -0 1 -3 3
5 5 -2 3 17 -2 2 4 -5 -0 3 3 9 -3 -2 -5 -4 6 -9 -1 3 -2 2 1 -0 -1 2 -0 4 1 1 3 1 0 2 4 2 0 3 -1 0 2 3
-1 -3 -1 2 3 -3 2 3 12 -14 -1 -5 -1 -0 -0 0 2 2 -1 5 2 -3 3 1 1 0 2 1 0 2 1 2 1 8 -1 6 -2 -3 3 -2 -1 -1 3
-1 0 -3 2 6 3 2 -2 0 -7 -4 -5 -1 1 -0 -0 -1 -1 -2 -1 -1 1 1 4 0 1 -2 -1 2 -0 0 -0 3 -1 -2 -7 11 1 2 -1 -2 -0 -2
1 -1 1 -2 -1 -1 0 0 -1 -1 2 4 -6 -5 1 1 -5 -1 2 2 0 0 2 1 4 -2 0 3 0 0 1 -0 2 1 2 2 4 -0 -1 -2 -1 -2 -2
0 -1 -0 1 -0 -0 0 2 2 1 1 -1 -2 -2 -4 -1 1 -3 -1 -2 -1 1 -4 -1 -4 0 1 2 2 2 -1 3 3 3 3 -1 -1 -3 -2 0 2 3 1
-1 2 1 1 1 1 2 2 1 2 0 -3 -1 0 -1 -1 -0 1 -3 1 -1 -2 -0 -1 -1 -1 3 -1 3 1 1 1 -1 2 1 -0 -2 -1 1 -0 0 2 -1
1 -0 1 1 1 1 1 0 -0 -1 -0 2 3 1 -0 1 0 1 -3 -1 -2 -3 3 -1 -1 -0 -2 4 3 2 -0 2 0 1 -2 -2 1 3 -3 1 2 1 2
0 -0 0 1 -0 1 2 3 3 2 1 -1 -2 -1 -0 -2 -0 -1 0 -2 -4 1 -3 0 -1 -0 1 0 1 3 1 -1 3 -5 3 1 0 2 0 1 0 -2 0
-1 -1 -1 -0 -0 -0 -0 -3 -3 -3 -2 -1 -1 -1 -1 -1 -1 -2 -3 -1 -2 -1 -0 2 2 -0 -1 -2 -0 -2 1 0 3 3 -1 3 -3 -1 1 -2 2 0 2
-1 -1 -1 -0 -0 0 -1 0 -0 -1 -0 -2 -2 -1 -0 -2 -1 -2 0 -1 -2 -3 -2 -1 -2 1 -3 -1 0 0 -0 -2 -1 2 -2 4 -2 -1 1 0 0 -1 0
1 1 2 3 -1 -2 -2 -1 -1 1 -1 -1 -1 -1 -0 -1 -1 -2 -2 -0 -0 1 -1 -1 -2 -1 1 -3 -0 2 -3 -2 2 4 4 -3 3 -1 -0 -1 0 -1 -0
3 5 2 1 0 1 0 -1 -0 -1 -2 -0 -0 -1 -0 -1 -0 0 1 -0 1 2 -1 -4 -3 1 2 -1 3 2 -3 1 -1 -0 4 1 -1 -2 1 0 1 -1 -1
-2 -1 0 -0 2 1 1 1 2 1 1 -1 -1 -1 -1 -0 -1 -1 -1 -2 -3 -2 1 3 2 -2 -1 1 -3 5 -1 -1 -1 1 1 -1 1 1 2 0 -2 -1 -0
1 1 1 -0 -1 2 -0 4 3 2 0 -1 -0 -1 -0 -2 -1 -1 -1 -2 -1 -2 -2 -2 -3 -2 0 1 2 1 3 -4 1 1 1 0 -0 2 -0 -1 1 -0 -2
-1 1 0 -0 -1 -0 2 1 2 2 1 0 0 0 0 -1 0 0 1 0 0 0 1 1 2 0 2 0 2 -2 -1 0 1 -1 1 2 1 -0 -2 -0 -0 -0 -0
-0 0 0 -2 -0 0 1 -0 0 1 -0 0 -1 -1 -0 -0 0 -0 -1 -1 -1 -1 -0 -0 1 1 -1 0 -3 -2 -1 1 -2 1 1 2 -3 -1 -1 0 -0 -0 0
1 -0 -0 -0 -0 -1 -0 -1 -0 -1 -1 -0 0 -1 0 -0 -1 -1 -1 -1 0 0 2 1 -0 -1 -2 -1 2 1 1 0 2 2 2 -2 -3 -1 0 -1 0 0 1
-2 -1 -1 0 0 2 0 -1 -1 -1 0 0 -2 -1 1 -0 1 -1 -1 -1 -1 -1 -1 1 -0 0 1 0 1 1 2 1 1 0 -1 -2 -0 -0 -0 1 -0 0 0
Height
1495 1498 1501 1501 1503 1508 1513 1518 1519 1523 1526 1529 1531 1534 1538 1542 1545 1549 1551 1554 1555 1557 1557 1560 1562 1562 1563 1565 1566 1567 1568 1568 1570 1570 1570 1569 1569 1569 1569 1570 1570 1571 1568
1491 1494 1498 1500 1499 1504 1509 1514 1520 1521 1524 1527 1529 1532 1535 1539 1542 1545 1547 1550 1552 1554 1555 1556 1559 1560 1561 1562 1564 1564 1565 1566 1567 1567 1568 1567 1568 1566 1566 1567 1568 1567 1566
1487 1488 1493 1497 1496 1500 1505 1510 1516 1520 1522 1525 1527 1530 1532 1534 1539 1542 1544 1548 1549 1551 1552 1554 1557 1558 1558 1559 1560 1561 1562 1563 1563 1564 1565 1564 1564 1564 1564 1564 1564 1563 1562
1483 1485 1489 1493 1494 1497 1503 1507 1509 1516 1519 1522 1525 1527 1529 1531 1536 1537 1541 1544 1545 1547 1549 1552 1554 1555 1554 1554 1556 1557 1558 1559 1559 1559 1559 1559 1560 1560 1560 1560 1560 1560 1559
1480 1483 1487 1491 1492 1496 1500 1506 1506 1513 1518 1520 1524 1524 1527 1529 1533 1532 1536 1539 1539 1543 1547 1550 1551 1551 1549 1550 1550 1552 1553 1553 1554 1554 1554 1554 1555 1555 1556 1555 1557 1555 1555
1476 1479 1484 1489 1491 1493 1498 1501 1504 1508 1512 1518 1522 1520 1528 1526 1527 1527 1531 1534 1537 1539 1541 1543 1545 1545 1544 1544 1546 1546 1547 1548 1549 1549 1550 1550 1550 1550 1550 1550 1550 1552 1551
1473 1477 1481 1485 1488 1492 1495 1499 1503 1505 1510 1515 1518 1520 1522 1516 1525 1525 1531 1535 1537 1537 1538 1541 1540 1539 1539 1540 1540 1541 1542 1543 1543 1544 1545 1545 1545 1546 1546 1547 1547 1548 1548
1469 1474 1478 1481 1484 1487 1492 1496 1499 1502 1504 1508 1513 1515 1518 1520 1524 1526 1528 1529 1531 1531 1532 1533 1534 1533 1534 1534 1534 1535 1536 1537 1537 1539 1540 1540 1540 1541 1542 1542 1544 1544 1544
1465 1469 1474 1478 1481 1483 1487 1492 1495 1499 1501 1504 1507 1510 1514 1516 1519 1519 1523 1525 1524 1525 1527 1527 1527 1528 1528 1527 1528 1529 1530 1531 1531 1533 1534 1535 1535 1537 1537 1538 1539 1540 1539
1464 1466 1470 1475 1478 1481 1482 1486 1488 1495 1500 1501 1504 1507 1509 1510 1513 1515 1517 1519 1519 1521 1522 1521 1522 1522 1521 1522 1522 1523 1523 1524 1525 1527 1530 1530 1530 1531 1532 1533 1534 1535 1535
1461 1464 1467 1470 1474 1476 1478 1483 1485 1490 1498 1500 1502 1504 1506 1508 1509 1511 1513 1514 1515 1517 1517 1517 1517 1517 1517 1517 1516 1516 1517 1519 1520 1521 1524 1524 1524 1527 1527 1527 1527 1528 1529
1460 1462 1465 1468 1470 1472 1476 1480 1482 1487 1491 1494 1499 1502 1505 1505 1506 1509 1510 1511 1511 1512 1513 1513 1512 1513 1514 1513 1512 1513 1514 1516 1516 1516 1518 1519 1519 1521 1522 1522 1522 1522 1525
1458 1460 1464 1466 1469 1472 1476 1478 1482 1486 1489 1493 1496 1499 1502 1502 1504 1505 1506 1506 1508 1507 1507 1507 1508 1509 1509 1510 1509 1509 1511 1511 1511 1512 1513 1514 1515 1516 1518 1517 1519 1518 1520
1458 1460 1463 1466 1470 1473 1476 1478 1480 1483 1487 1490 1493 1495 1498 1499 1501 1501 1502 1502 1502 1503 1504 1503 1504 1505 1505 1505 1504 1505 1506 1506 1507 1508 1508 1510 1510 1511 1513 1513 1514 1515 1516
1458 1460 1463 1466 1469 1472 1474 1477 1479 1482 1485 1488 1490 1492 1494 1495 1497 1498 1497 1498 1499 1500 1500 1499 1499 1498 1500 1500 1499 1499 1500 1502 1503 1504 1504 1505 1507 1506 1509 1512 1512 1511 1516
1459 1461 1464 1466 1469 1471 1473 1476 1478 1480 1483 1485 1487 1490 1491 1493 1494 1495 1495 1495 1495 1496 1496 1495 1494 1493 1495 1494 1495 1496 1497 1498 1498 1498 1500 1501 1503 1505 1506 1508 1510 1509 1513
1458 1460 1463 1465 1468 1470 1472 1474 1477 1479 1482 1484 1486 1488 1489 1490 1491 1492 1491 1492 1492 1492 1491 1491 1489 1488 1489 1490 1491 1493 1495 1496 1497 1496 1497 1500 1500 1502 1505 1505 1506 1507 1508
1456 1459 1461 1464 1467 1469 1471 1473 1475 1477 1479 1481 1483 1485 1486 1487 1488 1489 1489 1489 1488 1488 1487 1485 1485 1485 1485 1486 1487 1489 1492 1494 1495 1495 1496 1497 1497 1499 1503 1503 1504 1505 1506
1455 1458 1460 1463 1465 1467 1469 1472 1473 1475 1477 1479 1480 1482 1483 1484 1485 1485 1485 1485 1484 1484 1483 1482 1482 1482 1482 1484 1485 1486 1489 1492 1495 1494 1494 1494 1496 1497 1500 1501 1502 1502 1503
1454 1456 1459 1461 1463 1465 1467 1469 1471 1472 1474 1476 1478 1479 1480 1481 1481 1481 1481 1481 1480 1479 1479 1480 1481 1479 1480 1481 1484 1485 1487 1489 1494 1494 1492 1493 1494 1496 1497 1499 1499 1500 1500
1451 1453 1455 1458 1461 1463 1464 1466 1468 1469 1471 1473 1474 1475 1476 1477 1477 1478 1478 1478 1477 1477 1477 1478 1477 1477 1479 1481 1483 1483 1486 1487 1492 1492 1491 1492 1493 1494 1495 1496 1497 1498 1499
1451 1453 1454 1456 1458 1460 1463 1464 1465 1465 1467 1469 1471 1472 1473 1473 1473 1473 1473 1473 1474 1474 1474 1474 1475 1477 1478 1478 1480 1482 1484 1487 1490 1490 1490 1490 1491 1492 1493 1494 1495 1496 1497
1453 1453 1454 1455 1457 1459 1460 1461 1462 1463 1464 1466 1467 1468 1468 1469 1469 1469 1469 1469 1469 1470 1471 1472 1473 1474 1475 1477 1479 1481 1483 1485 1486 1486 1487 1488 1488 1490 1491 1492 1493 1494 1495
1454 1454 1454 1456 1457 1458 1458 1459 1460 1461 1462 1464 1464 1464 1464 1464 1465 1465 1465 1465 1466 1466 1467 1468 1470 1471 1473 1475 1477 1480 1481 1482 1483 1484 1485 1485 1486 1488 1489 1490 1491 1492 1493
1455 1455 1455 1456 1456 1457 1457 1458 1458 1459 1460 1460 1460 1460 1460 1460 1461 1461 1462 1462 1462 1463 1464 1465 1468 1469 1471 1475 1477 1478 1479 1480 1481 1482 1482 1483 1484 1486 1487 1487 1488 1489 1490
1456 1456 1456 1455 1455 1455 1455 1455 1456 1456 1456 1456 1456 1456 1456 1456 1457 1457 1457 1458 1458 1459 1460 1463 1465 1468 1470 1472 1474 1476 1477 1477 1478 1479 1479 1480 1482 1483 1484 1484 1485 1486 1487